This demonstration page uses our WeatherBlox Daily Observations layout. Learn more.

36.17497, -115.13722

Hourly Observations for February 13, 2016

Temp ( °F °C ) Dew Point ( °F °C ) Humidity (%) Winds ( mph kmh ) Pressure ( in mb ) Visibility ( mi km ) Precip ( " mm )
12:53 am 00:53 Clear 49 9.4 26 -3.3 41 41 NW 6 9 30.19 1022 10 16.0934 0 0
1:53 am 01:53 Clear 50 10 26 -3.3 39 39 Calm 30.17 1022 10 16.0934 0 0
2:53 am 02:53 Clear 48 8.9 26 -3.3 42 42 NW 7 11 30.17 1022 10 16.0934 0 0
3:53 am 03:53 Clear 48 8.9 24 -4.4 39 39 NW 5 7 30.17 1022 10 16.0934 0 0
4:53 am 04:53 Clear 46 7.8 25 -3.9 44 44 NNW 6 9 30.18 1022 10 16.0934 0 0
5:53 am 05:53 Clear 45 7.2 26 -3.3 48 48 W 3 6 30.2 1023 10 16.0934 0 0
6:53 am 06:53 Sunny 47 8.3 24 -4.4 41 41 NNW 5 7 30.22 1023 10 16.0934 0 0
7:53 am 07:53 Sunny 54 12.2 22 -5.6 29 29 NNW 3 6 30.22 1024 10 16.0934 0 0
8:53 am 08:53 Sunny 57 13.9 23 -5 27 27 NW 3 6 30.23 1024 10 16.0934 0 0
9:53 am 09:53 Sunny 62 16.7 25 -3.9 24 24 VRB 3 6 30.22 1023 10 16.0934 0 0
10:53 am 10:53 Sunny 66 18.9 25 -3.9 21 21 ESE 5 7 30.21 1023 10 16.0934 0 0
11:53 am 11:53 Sunny 68 20 24 -4.4 19 19 ESE 5 7 30.18 1022 10 16.0934 0 0
12:53 pm 12:53 Sunny 70 21.1 23 -5 17 17 Calm 30.14 1021 10 16.0934 0 0
1:53 pm 13:53 Sunny 72 22.2 23 -5 16 16 E 7 11 30.11 1020 10 16.0934 0 0
2:53 pm 14:53 Sunny 73 22.8 23 -5 15 15 SE 7 11 30.11 1020 10 16.0934 0 0
3:53 pm 15:53 Sunny 73 22.8 24 -4.4 16 16 E 3 6 30.12 1020 10 16.0934 0 0
4:53 pm 16:53 Sunny 72 22.2 24 -4.4 17 17 Calm 30.13 1020 10 16.0934 0 0
5:53 pm 17:53 Clear 67 19.4 24 -4.4 20 20 WSW 3 6 30.13 1020 10 16.0934 0 0
6:53 pm 18:53 Clear 66 18.9 24 -4.4 20 20 N 6 9 30.13 1020 10 16.0934 0 0
7:53 pm 19:53 Clear 61 16.1 23 -5 23 23 NNW 5 7 30.12 1020 10 16.0934 0 0
8:53 pm 20:53 Clear 61 16.1 22 -5.6 22 22 N 8 13 30.14 1021 10 16.0934 0 0
9:53 pm 21:53 Clear 64 17.8 19 -7.2 18 18 N 15 24 30.14 1021 10 16.0934 0 0
10:53 pm 22:53 Clear 62 16.7 19 -7.2 19 19 N 20 31 30.14 1021 10 16.0934 0 0
11:53 pm 23:53 Clear 58 14.4 19 -7.2 22 22 WNW 7 11 30.15 1021 10 16.0934 0 0

Powered by AerisWeather